Location: Caltech
(34.1382°N, 118.1253°W)
Time: 16:03:19
(UTC-07:00)

Cosmos 1125 Rocket - Visible Passes

Search period start: 25 July 2014 00:00
Search period end: 04 August 2014 00:00
Orbit: 758 x 782 km, 74.0° (Epoch: 25 July)

Date Brightness Start Highest point End Pass type
(mag) Time Alt. Az. Time Alt. Az. Time Alt. Az.
25 Jul 3.5 22:03:32 10° N 22:08:48 65° ENE 22:09:36 57° ESE visible
25 Jul 6.0 23:48:35 10° WNW 23:49:55 11° W 23:49:55 11° W visible
26 Jul 4.2 21:27:27 10° N 21:32:19 37° ENE 21:34:04 29° ESE visible
26 Jul 5.3 23:10:13 10° NW 23:14:06 21° W 23:14:23 21° WSW visible
27 Jul 5.0 20:51:43 10° NNE 20:55:44 22° ENE 20:58:34 15° ESE visible
27 Jul 4.5 22:33:05 10° NW 22:37:55 38° W 22:38:53 35° SW visible
28 Jul 5.5 20:16:47 10° NNE 20:19:02 13° ENE 20:21:16 10° E visible
28 Jul 3.7 21:56:24 10° NNW 22:01:39 69° WSW 22:03:27 41° S visible
29 Jul 3.5 21:20:02 10° NNW 21:25:17 67° ENE 21:28:02 28° SSE visible
29 Jul 6.1 23:05:20 10° W 23:06:40 11° W 23:07:59 10° WSW visible
30 Jul 4.2 20:43:55 10° N 20:48:49 38° ENE 20:52:42 15° SE visible
30 Jul 5.6 22:26:46 10° NW 22:30:34 21° W 22:33:02 15° SW visible
31 Jul 4.8 21:49:36 10° NW 21:54:24 37° W 21:57:44 18° SSW visible
01 Aug 3.8 21:12:54 10° NNW 21:18:08 67° WSW 21:22:31 14° S visible
02 Aug 3.5 20:36:31 10° NNW 20:41:46 69° ENE 20:46:57 10° SSE visible
02 Aug 6.3 22:22:10 10° W 22:23:08 11° W 22:24:05 10° WSW visible
03 Aug 5.8 21:43:19 10° NW 21:47:02 20° W 21:50:44 10° SW visible
